This is the latest recevied weather packets stored in our database for station/object IK1AMC-3. If no packets are shown the sender has not sent any weather packets the latest 10 day(s).
| Time | Temp. | Humidity | Pressure | Rain* | Wind** | Luminosity | Snow |
|---|---|---|---|---|---|---|---|
| 1777510575 | 18.89° C | 57% | 1015.7 hPa | - | - | - | - |
| 1777509374 | 18.89° C | 57% | 1015.8 hPa | - | - | - | - |
| 1777508173 | 18.89° C | 57% | 1015.8 hPa | - | - | - | - |
| 1777506971 | 18.89° C | 57% | 1015.7 hPa | - | - | - | - |
| 1777505770 | 18.89° C | 57% | 1015.6 hPa | - | - | - | - |
| 1777493757 | 17.78° C | 55% | 1014.6 hPa | - | - | - | - |
| 1777490153 | 18.89° C | 51% | 1014.3 hPa | - | - | - | - |
| 1777487750 | 20° C | 51% | 1014 hPa | - | - | - | - |
| 1777479340 | 22.22° C | 51% | 1013.8 hPa | - | - | - | - |
| 1777473333 | 23.33° C | 45% | 1014.2 hPa | - | - | - | - |
| 1777469729 | 23.33° C | 50% | 1014.5 hPa | - | - | - | - |
| 1777468527 | 24.44° C | 47% | 1014.5 hPa | - | - | - | - |
| 1777463722 | 24.44° C | 42% | 1014.5 hPa | - | - | - | - |
| 1777462521 | 24.44° C | 43% | 1014.7 hPa | - | - | - | - |
| 1777461319 | 23.33° C | 44% | 1014.6 hPa | - | - | - | - |
| 1777458917 | 22.78° C | 46% | 1014.9 hPa | - | - | - | - |
| 1777457715 | 22.78° C | 48% | 1015.1 hPa | - | - | - | - |
| 1777456514 | 21.67° C | 51% | 1015.1 hPa | - | - | - | - |
| 1777455313 | 21.67° C | 51% | 1015.2 hPa | - | - | - | - |
| 1777454112 | 21.11° C | 53% | 1015.3 hPa | - | - | - | - |
| 1777452910 | 21.11° C | 56% | 1015.4 hPa | - | - | - | - |
| 1777451989 | 20.56° C | 58% | 1015.3 hPa | - | - | - | - |
| 1777450787 | 20° C | 60% | 1015.4 hPa | - | - | - | - |
| 1777449586 | 19.44° C | 62% | 1015.1 hPa | - | - | - | - |
| 1777448385 | 18.89° C | 63% | 1015.2 hPa | - | - | - | - |
* Rain since midnight (hover to see other rain measurements)
** Current wind speed in m/s (hover to see current wind gust speed)